Location: Phoenix
(33.4480°N, 112.0730°W)
Time: 06:53:27
(UTC-07:00)

Daily predictions for brighter satellites

Satellite Brightness Start Highest point End
(mag) Time Altitude Azimuth Time Altitude Azimuth Time Altitude Azimuth
Cosmos 2333 Rocket 3.7 18:33:32 10° SW 18:38:59 43° WNW 18:44:29 10° N
Cosmos-2242 4.5 18:40:32 10° SE 18:43:21 17° E 18:46:11 10° NE
Cosmos 1484 Rocket 2.7 18:39:44 10° SSE 18:43:30 75° ENE 18:47:23 10° N
Cosmos 2233 Rocket 4.2 18:38:28 10° S 18:44:45 81° W 18:51:06 10° N
Helios 1B rocket 3.4 18:41:29 10° NE 18:44:55 25° E 18:48:20 10° SSE
Tiangong 2 3.8 18:43:51 10° W 18:46:02 17° SW 18:48:11 10° S
Cosmos 2056 Rocket 3.8 18:42:45 10° N 18:48:01 48° ENE 18:53:13 10° SE
NOSS 3-2 (C) 3.5 18:42:27 10° SSW 18:48:19 62° ESE 18:54:38 10° NE
CENTAUR R/B 4.0 18:46:18 10° SE 18:48:32 12° ESE 18:50:51 10° E
IDEFIX/ARIANE 42P 4.1 18:49:37 10° SSW 18:54:30 41° W 18:59:26 10° NNW
ASTRO E2 2.9 18:50:54 10° WSW 18:54:54 63° S 18:58:31 12° E
NOAA 12 4.2 18:50:50 10° SSE 18:55:53 52° ENE 19:01:01 10° N
Cosmos 1371 Rocket 4.0 18:52:21 10° NNW 18:57:41 83° ENE 19:03:01 10° SSE
Abrixas 3.6 18:57:49 10° SSW 19:00:21 25° SE 19:02:07 15° E
Cosmos 1408 Rocket 4.4 18:56:38 10° NNE 19:00:25 29° ENE 19:04:09 10° SE
SAR-Lupe-1 4.0 18:56:58 10° SSE 19:00:29 66° ENE 19:04:01 10° N
Atlas Centaur 2 3.4 18:52:55 10° W 19:01:24 63° SSW 19:08:49 12° ESE
Aureole 2 Rocket 3.2 18:57:16 10° SSW 19:01:39 76° WNW 19:06:00 10° NNE
Cosmos 1766 3.2 18:59:13 10° S 19:03:09 80° E 19:07:07 10° N
Cosmos 2237 Rocket 4.2 18:59:45 10° SW 19:04:45 31° WNW 19:09:46 10° N
HJ-1C 4.2 19:02:00 10° SE 19:04:59 31° ENE 19:07:59 10° N
ATLAS CENTAUR R/B 1.1 19:02:09 10° NNW 19:06:16 81° ENE 19:10:03 10° SSE
Resurs 01 Rocket 2.1 19:04:14 10° SE 19:08:23 40° ENE 19:12:32 10° N
Resurs 1-3 4.4 19:05:59 10° SE 19:09:50 31° ENE 19:13:43 10° N
Okean 3 Rocket 3.7 19:07:07 10° N 19:11:40 81° W 19:16:12 10° S
ATLAS 5 CENTAUR R/B 1.7 19:07:36 10° SSW 19:12:17 81° ESE 19:17:18 10° NNE
Cosmos 1624 Rocket 4.0 19:10:06 10° NNW 19:15:19 84° WSW 19:20:30 10° SSE
Meteor 1-29 3.0 19:17:21 10° NNE 19:20:48 57° E 19:24:13 10° S
ISS -2.2 19:19:30 10° S 19:22:13 25° SE 19:22:14 25° SE
SL-16 R/B 3.1 19:18:31 10° SW 19:24:01 51° WNW 19:29:34 10° N
Cosmos 1953 2.2 19:20:32 10° S 19:24:27 61° E 19:28:23 10° NNE
Milstar 3 4.5 19:15:18 10° W 19:25:20 71° S 19:40:01 21° ESE
BREEZE-M TANK 2.9 19:18:45 10° WNW 19:27:12 78° SW 19:29:14 23° SE
Cosmos 1743 Rocket 4.4 19:24:14 10° NNE 19:28:03 27° ENE 19:28:39 26° E
USA 215 3.7 19:22:44 10° NE 19:29:09 62° NW 19:35:33 10° WSW
Gbstr 26 Del rocket 4.0 19:26:38 10° S 19:30:21 29° SE 19:31:12 27° ESE
Spot 1 4.3 19:26:10 10° SSE 19:31:02 90° WNW 19:35:38 10° NNW
Helios 1A 2.9 19:27:40 10° SSE 19:31:48 67° ENE 19:35:57 10° N
ATLAS CENTAUR R/B 3.9 19:27:20 10° WSW 19:31:49 58° NW 19:45:33 10° NE
Cosmos 1805 3.1 19:31:02 10° S 19:34:57 85° E 19:38:54 10° N
H-2A R/B 3.7 19:36:26 30° ENE 19:36:26 30° ENE 19:39:33 10° NNE
Cosmos 1544 3.1 19:33:22 10° S 19:37:00 55° E 19:40:40 10° NNE
OAO 1 Rocket 4.4 19:31:40 10° W 19:37:03 82° N 19:39:51 29° ENE
CZ-4B DEB 3.7 19:39:32 33° NE 19:39:32 33° NE 19:41:52 10° N
Cosmos 1378 4.4 19:37:15 10° NNW 19:40:48 43° W 19:44:20 10° SSW
SeaSat 1 2.7 19:37:04 10° NE 19:41:47 45° ESE 19:46:29 10° S
METEOR-M 4.3 19:37:29 10° S 19:42:48 74° WSW 19:48:10 10° NNW
Nadezhda 4 Rocket 4.1 19:37:33 10° N 19:43:40 52° E 19:48:44 15° SSE
Cosmos 1452 Rocket 3.4 19:39:28 10° N 19:44:43 67° ENE 19:47:54 24° SSE
ALOS 2.3 19:42:51 26° SE 19:45:19 56° ENE 19:49:54 10° N
SEDSat Delta rocket 4.0 19:42:33 10° W 19:49:18 76° S 19:52:20 36° E
OAO 3 Rocket 3.2 19:44:51 10° W 19:49:37 73° N 19:51:10 42° ENE
Cosmos 1092 Rocket 4.3 19:43:53 10° N 19:49:42 41° E 19:51:19 35° ESE
FENGYUN 3A 3.6 19:48:13 21° SSE 19:51:50 65° ENE 19:57:10 10° N
Cosmos 1634 Rocket 4.1 19:53:48 10° SSE 19:59:44 47° E 20:05:39 10° NNE
Cosmos 1766 Rocket 4.5 19:59:22 10° NNW 20:03:34 48° W 20:07:43 10° SSW
Cosmos 1420 Rocket 4.0 20:02:30 10° N 20:07:44 58° ENE 20:07:54 58° E
Cosmos 1943 3.3 20:02:35 10° S 20:14:48 - NNE 20:07:18 50° SE
Cosmos 1603 4.3 20:05:36 10° SW 20:11:12 56° WNW 20:16:52 10° NNE
Cosmos 2369 Rocket 3.4 20:07:17 10° N 20:10:43 26° NE 20:10:43 26° NE
GPS 2-04 Rocket1 3.9 20:13:29 10° WSW 20:15:36 34° WSW 20:15:36 34° WSW
Cosmos 1943 Rocket 4.4 20:16:27 10° NNE 20:16:46 11° NNE 20:16:46 11° NNE
Cosmos 1048 Rocket 4.4 20:17:21 10° SSW 20:22:37 64° WNW 20:27:52 10° N
ASTEX 1 4.0 20:21:37 10° N 20:26:23 54° W 20:31:08 10° SSW
SL-8 R/B 4.4 20:22:37 10° WSW 20:27:14 48° NNW 20:27:44 46° NNW
Cosmos 1842 Rocket 4.4 20:32:03 48° WNW 20:32:03 48° WNW 20:35:59 10° N
CENTAUR R/B 2.4 20:32:09 10° SW 20:38:03 79° WNW 20:40:44 37° NNE
Atlas Centaur 2 3.8 20:43:24 10° W 20:50:43 34° SSW 20:51:30 33° SSW
